Regional Weather Roundup
Issued by NWS

Home | Current Version | Previous Version | Text Only | Print | Product List | Glossary Off
Versions: 1 2 3 4 5 6 7 8 9 10 11 12 13 14 15 16 17 18 19 20 21 22 23 24 25 26 27 28 29 30 31 32 33 34 35 36 37 38 39 40 41 42 43 44 45 46 47 48 49 50

000
ASUS43 KDTX 241510
RWRMI
MICHIGAN HOURLY REGIONAL WEATHER ROUNDUP
NATIONAL WEATHER SERVICE DETROIT/PONTIAC MI
1100 AM EDT TUE MAY 24 2016

NOTE: "FAIR" INDICATES FEW OR NO CLOUDS BELOW 12,000 FEET WITH NO
SIGNIFICANT WEATHER AND/OR OBSTRUCTION TO VISIBILITY.

MIZ047>049-052>055-059>063-066>070-074>076-081>083-241600-
SOUTHEAST LOWER MICHIGAN

CITY           SKY/WX    TMP DP  RH WIND       PRES   REMARKS
ADRIAN         SUNNY     73  47  39 W7        30.07S
ALMA           SUNNY     73  47  39 SW9       30.01S
ANN ARBOR      SUNNY     74  48  39 W8        30.05S
BAD AXE        SUNNY     76  46  34 W12G17    30.01R
CARO           SUNNY     76  48  37 SW7       30.00S
DETROIT CITY   SUNNY     76  42  29 W8        30.04F
DETROIT        MOSUNNY   76  46  34 SW8       30.05F
FLINT          SUNNY     79  46  31 SW10      30.02S
GROSSE ILE     SUNNY     68  57  68 S6        30.04S
HILLSDALE      SUNNY     76  33  21 W12G18    30.06S
HOWELL         SUNNY     76  46  33 SW9       30.03S

CITY           SKY/WX    TMP DP  RH WIND       PRES   REMARKS
JACKSON        SUNNY     75  47  36 W13       30.05S
LAMBERTVILLE   SUNNY     76  47  35 W6        30.07S
LANSING        SUNNY     75  48  38 SW12      30.02F
LAPEER         FAIR      76  40  27 SW8       30.03S
MASON          SUNNY     75  47  36 W9        30.04S
MONROE         SUNNY     75  49  39 SW7       30.05S
MT. CLEMENS    SUNNY     78  46  32 W6        30.03S
PONTIAC        MOSUNNY   77  44  30 W13       30.03F
PORT HOPE        N/A     77  42  28 VRB6G17   29.97F
PORT HURON     SUNNY     75  45  33 S6        30.03S
TRI CITIES     SUNNY     77  46  33 SW14      30.00S
MIDLAND        FAIR      76  48  36 W6        29.98F
TROY           SUNNY     77  44  30 SW5       30.05S
SAGINAW HB     SUNNY     75  43  31 SW13      29.99S
$$
MIZ043>046-050>051-056>058-064>065-071>073-077>080-241600-
SOUTHWEST LOWER MICHIGAN

CITY           SKY/WX    TMP DP  RH WIND       PRES   REMARKS
BATTLE CREEK   SUNNY     75  49  39 W10       30.04S
BENTON HARBOR  MOSUNNY   76  52  43 SW9       30.02F
BIG RAPIDS     CLOUDY    73  50  43 SW7       30.00R
COLDWATER      SUNNY     76  46  34 W12G17    30.05S
FREMONT        FAIR      73  49  41 SW7       29.99F
HOLLAND        CLOUDY    74  52  46 W9        30.02F
GRAND RAPIDS   CLOUDY    77  49  37 SW8       30.02S
IONIA          FAIR      76  46  34 SW12      30.01S
KALAMAZOO      SUNNY     78  50  37 W12       30.03F
LUDINGTON      CLOUDY    72  50  47 S8        29.97S
MARSHALL       SUNNY     75  48  37 SW10G16   30.04S
MOUNT PLEASANT SUNNY     76  49  38 W7        29.98S
MUSKEGON       CLOUDY    70  47  43 SW9       30.01S
SOUTH HAVEN    MOSUNNY   75  49  40 SW8       30.01F
$$
MIZ016>042-241600-
NORTHERN LOWER MICHIGAN

CITY           SKY/WX    TMP DP  RH WIND       PRES   REMARKS
ALPENA         SUNNY     82  42  24 W7        29.94F
BEAVER ISLAND  CLOUDY    68  44  43 SW12      29.93S
BELLAIRE       SUNNY     77  44  31 SW5       29.94F
CADILLAC       SUNNY     76  48  37 SW9       29.98S
CHARLEVOIX     SUNNY     76  46  33 SW6       29.97R
FRANKFORT      MOSUNNY   71  48  43 SW8       29.95S
GAYLORD        SUNNY     80  45  28 W13G18    29.96S
GRAYLING       SUNNY     81  47  30 W8        29.97S
HARBOR SPRINGS SUNNY     73  44  35 SW6       29.94S
HOUGHTON LAKE  SUNNY     74  46  36 SW7       29.98S
MANISTEE       PTSUNNY   75  48  38 SW6       29.97S
OSCODA         SUNNY     78  44  29 SW7       29.95F
PELLSTON       SUNNY     77  44  30 SW8       29.93S
ROGERS CITY    SUNNY     81  43  26 SW9       29.93S
TRAVERSE CITY  PTSUNNY   80  46  30 SW9       29.93F
$$
MIZ007>008-015-241600-
EASTERN UPPER MICHIGAN

CITY           SKY/WX    TMP DP  RH WIND       PRES   REMARKS
KINROSS          N/A     73  45  35 W5        29.91S
MACKINAC ISLAN SUNNY     68  43  40 W9G18     29.93S
NEWBERRY       CLOUDY    70  50  50 SW3       29.90F
S. S. MARIE    SUNNY     69  48  47 SE7       29.91F
MUNISING         N/A     63  52  67 N8        29.90R
$$
MIZ004>006-011>014-085-241600-
CENTRAL UPPER MICHIGAN

CITY           SKY/WX    TMP DP  RH WIND       PRES   REMARKS
MANISTIQUE     PTSUNNY   61  51  68 S6        29.91R
ESCANABA       PTSUNNY   68  52  56 S7        29.89R
SAWYER-GWINN   CLOUDY    64  59  82 W5        29.91R
$$
MIZ001>003-009>011-084-241600-
WESTERN UPPER MICHIGAN

CITY           SKY/WX    TMP DP  RH WIND       PRES   REMARKS
IRON MOUNTAIN  LGT RAIN  66  61  84 NW3       29.90R
HOUGHTON       CLOUDY    69  58  67 CALM      29.87R
COPPER HARBOR    N/A     50  49  96 NE5       29.89R
IRONWOOD       CLOUDY    66  64  94 SW6       29.84S
$$

ABBREVIATIONS USED IN REMARKS
   TC - TEMPERATURE IN CELSIUS
  WCI - WIND CHILL INDEX
   HX - HEAT INDEX
  VSB - VISIBILITY




USA.gov is the U.S. government's official web portal to all federal, state and local government web resources and services.